CET,Max TemperatureF,Mean TemperatureF,Min TemperatureF,Max Dew PointF,MeanDew PointF,Min DewpointF,Max Humidity, Mean Humidity, Min Humidity, Max Sea Level PressureIn, Mean Sea Level PressureIn, Min Sea Level PressureIn, Max VisibilityMiles, Mean VisibilityMiles, Min VisibilityMiles, Max Wind SpeedMPH, Mean Wind SpeedMPH, Max Gust SpeedMPH,PrecipitationIn, CloudCover, Events, WindDirDegrees
2013-10-1,77,70,62,64,61,57,94,74,50,29.80,29.71,29.65,6,6,6,10,4,,0.00,2,,273
2013-10-2,77,70,64,63,54,48,83,58,41,30.06,29.91,29.80,6,6,6,14,6,,0.00,2,,48
2013-10-3,73,66,59,48,44,39,63,45,29,30.24,30.16,30.06,6,6,6,15,8,,0.00,1,,47
2013-10-4,75,66,57,54,47,43,63,51,33,30.30,30.25,30.24,6,6,6,8,5,,0.00,4,,5
2013-10-5,66,63,60,63,57,52,94,79,60,30.24,30.17,30.09,6,5,2,14,5,,0.00,6,Rain-Thunderstorm,10
2013-10-6,75,68,62,64,63,61,94,82,65,30.09,30.04,29.98,6,5,2,13,6,25,0.00,6,Rain-Thunderstorm,252
2013-10-7,77,70,62,64,63,61,94,82,61,30.12,30.07,30.04,6,6,3,9,4,,0.00,3,Rain,200
2013-10-8,75,68,60,64,60,57,94,80,61,30.15,30.11,30.09,6,6,3,9,3,,0.00,5,Rain-Thunderstorm,37
2013-10-9,73,66,60,63,60,57,94,81,65,30.12,30.07,30.04,6,6,6,12,4,,0.00,5,Rain-Thunderstorm,233
2013-10-10,73,66,59,63,60,57,94,80,64,30.06,29.97,29.86,6,6,5,12,5,,0.00,4,Rain,208
2013-10-11,75,70,66,68,65,63,94,82,65,30.06,29.94,29.86,6,6,2,14,6,22,0.00,4,Rain-Thunderstorm,198
2013-10-12,75,70,64,66,63,57,94,84,53,30.15,30.08,30.04,6,6,3,16,4,,0.00,4,Rain-Thunderstorm,358
2013-10-13,82,72,62,64,61,52,94,72,37,30.15,30.11,30.09,6,6,6,7,4,,0.00,2,,337
2013-10-14,82,72,62,64,59,52,88,68,37,30.15,30.10,30.06,6,6,6,8,4,,0.00,3,,354
2013-10-15,75,67,59,66,61,55,94,79,65,30.09,30.06,29.98,6,6,5,6,2,,0.00,3,,196
2013-10-16,75,68,62,66,61,52,94,77,64,29.98,29.80,29.68,6,6,4,15,5,26,0.00,3,Thunderstorm,252
2013-10-17,75,64,53,55,47,37,82,56,25,30.01,29.95,29.86,,,,10,4,,0.00,,,351
2013-10-18,75,64,53,55,49,41,77,61,31,30.09,30.04,30.01,,,,7,4,,0.00,,,346
2013-10-19,75,65,55,61,53,48,83,68,38,30.27,30.18,30.09,6,6,6,7,3,,0.00,1,,334
2013-10-20,77,68,59,64,59,54,88,76,57,30.30,30.27,30.24,6,6,6,9,4,,0.00,1,,325
2013-10-21,78,69,60,64,60,55,88,77,50,30.27,30.24,30.21,5,5,5,8,3,,0.00,,,1
2013-10-22,71,66,60,66,61,57,94,89,73,30.24,30.20,30.15,5,4,2,5,1,,0.00,5,,349
2013-10-23,77,68,60,64,63,57,94,84,65,30.21,30.16,30.12,4,2,0,6,3,,0.00,3,Fog,78
2013-10-24,77,68,60,64,62,57,94,82,57,30.18,30.16,30.15,6,3,0,5,3,,0.00,5,Fog,35
2013-10-25,78,69,60,64,61,57,94,78,50,30.18,30.17,30.15,5,3,2,9,3,,0.00,4,,345
2013-10-26,75,63,51,64,61,50,100,83,64,30.24,30.20,30.18,6,4,0,8,3,,0.00,2,Fog,66
2013-10-27,73,66,60,64,62,59,94,85,69,30.24,30.22,30.21,6,3,0,8,3,,0.00,5,Fog,283
2013-10-28,75,68,60,64,62,59,94,84,69,30.21,30.15,30.12,6,5,3,9,2,,0.00,4,,214
2013-10-29,77,68,60,64,62,59,94,84,65,30.12,30.04,29.98,6,4,2,6,2,,0.00,3,Fog,67
2013-10-30,73,65,57,63,60,55,94,81,65,30.06,30.00,29.98,6,4,0,7,3,,0.00,4,Fog,26
2013-10-31,78,68,59,61,57,54,94,72,42,30.15,30.10,30.06,16,6,3,8,3,,0.00,2,,342